Location: Filler
(36.7551°N, 30.4456°E)
Time: 09:57:22
(UTC+00:00)

CZ-4 R/B - Pass Details

Date: 19 June 2024
Orbit: 679 x 747 km, 98.6° (Epoch: 22 July)

Event Time Altitude Azimuth Distance (km) Brightness Sun altitude
Rises 01:35:35 0° 9° (N) 3,167 8.0 -11.2°
Reaches altitude 10° 01:37:53 10° 6° (N) 2,249 7.1 -10.9°
Maximum altitude 01:42:46 62° 286° (WNW) 833 4.0 -10.1°
Drops below altitude 10° 01:47:40 10° 206° (SSW) 2,255 5.9 -9.3°
Enters shadow 01:47:55 - 206° (SSW) 2,355 6.0 -9.3°
